This demonstration page uses our WeatherBlox Daily Observations layout. Learn more.

Left ArrowRight Arrow

Hourly Observations for February 15, 2018

Temp ( °F °C ) Dew Point ( °F °C ) Humidity (%) Winds ( mph kmh ) Pressure ( in mb ) Visibility ( mi km ) Precip ( " mm )
12:53 am 00:53 Clear 37 2.8 32 0 82 82 NNW 5 7 29.75 1008 10 16 0.00 0.00
1:53 am 01:53 Clear 36 2.2 31 -0.6 82 82 VRB 3 6 29.73 1007 10 16 0.00 0.00
2:53 am 02:53 Mostly Clear 38 3.3 31 -0.6 76 76 Calm 29.73 1007 10 16 0.00 0.00
3:53 am 03:53 Clear 37 2.8 31 -0.6 79 79 E 5 7 29.71 1006 10 16 0.00 0.00
4:53 am 04:53 Clear 37 2.8 30 -1.1 76 76 Calm 29.70 1006 10 16 0.00 0.00
5:53 am 05:53 Clear 38 3.3 30 -1.1 73 73 SSW 12 19 29.76 1008 10 16 0.00 0.00
6:53 am 06:53 Clear 35 1.7 30 -1.1 82 82 NNW 8 13 29.77 1008 10 16 0.00 0.00
7:53 am 07:53 Sunny 35 1.7 30 -1.1 82 82 NNW 8 13 29.80 1009 10 16 0.00 0.00
8:53 am 08:53 Sunny 37 2.8 29 -1.7 73 73 N 12 19 29.83 1010 10 16 0.00 0.00
9:53 am 09:53 Sunny 38 3.3 29 -1.7 70 70 N 12 19 29.86 1011 10 16 0.00 0.00
10:53 am 10:53 Sunny 40 4.4 30 -1.1 68 68 NNE 9 15 29.86 1011 10 16 0.00 0.00
11:53 am 11:53 Sunny 41 5 30 -1.1 65 65 NE 13 20 29.86 1011 10 16 0.00 0.00
12:53 pm 12:53 Sunny 42 5.6 30 -1.1 62 62 NNE 12 19 29.87 1011 10 16 0.00 0.00
1:53 pm 13:53 Sunny 41 5 30 -1.1 65 65 N 14 22 29.89 1012 N/A 0.00 0.00
2:53 pm 14:53 Sunny 41 5 30 -1.1 65 65 N 16 26 29.92 1013 N/A 0.00 0.00
3:53 pm 15:53 Sunny 41 5 30 -1.1 65 65 N 12 19 29.94 1014 N/A 0.00 0.00
4:53 pm 16:53 Mostly Cloudy 39 3.9 30 -1.1 70 70 N 17 28 29.99 1016 N/A 0.00 0.00
5:53 pm 17:53 Cloudy 36 2.2 30 -1.1 79 79 N 18 30 30.06 1018 N/A 0.00 0.00
6:53 pm 18:53 Cloudy 34 1.1 29 -1.7 82 82 N 20 31 30.12 1020 N/A 0.00 0.00
7:06 pm 19:06 Cloudy 34 1.1 29 -1.7 82 82 N 18 30 30.18 1022 N/A 0.00 0.00
7:46 pm 19:46 Cloudy 32 0 28 -2.2 85 85 N 24 39 30.18 1022 N/A 0.00 0.00
7:53 pm 19:53 Cloudy 31 -0.6 28 -2.2 89 89 N 24 39 30.17 1022 N/A 0.00 0.00
8:53 pm 20:53 Cloudy 28 -2.2 23 -5 81 81 N 28 44 30.23 1024 N/A 0.00 0.00
9:01 pm 21:01 Cloudy 28 -2 23 -5 80 80 N 28 44 30.27 1025 N/A 0.00 0.00
9:53 pm 21:53 Mostly Cloudy 25 -3.9 19 -7.2 78 78 N 25 41 30.28 1025 N/A 0.00 0.00
10:49 pm 22:49 Cloudy 25 -4 19 -7 80 80 N 29 46 30.36 1028 N/A 0.00 0.00
10:53 pm 22:53 Cloudy 24 -4.4 18 -7.8 77 77 N 30 48 30.31 1027 N/A 0.00 0.00
11:11 pm 23:11 Cloudy 23 -5 16 -8.9 74 74 N 29 46 30.39 1029 N/A 0.00 0.00
11:53 pm 23:53 Mostly Cloudy 21 -6.1 14 -10 74 74 N 24 39 30.38 1029 N/A 0.00 0.00

Powered by AerisWeather